Flag for Germany Weather past 2 weeks in Fürstenwalde/Spree, Brandenburg, Germany

Now
41 °F

Overcast.


Feels Like: 35 °F
Forecast: 25 / 35 °F
Wind: 9 mph from Southwest

Location: Lindenberg

Current Time: Dec 25, 2014 at 11:51:50 AM

Latest Report: Dec 25, 2014 at 11:00 AM


Visibility: 19 mi

Pressure: 29.97 "Hg

Humidity: 76%

Dew point: 34 °F

Location of Fürstenwalde/SpreeLocation

Historic Weather in Fürstenwalde/Spree — Graph

°F

Fürstenwalde/Spree temperature yesterday

Maximum temperature yesterday: 51 °F (at 12:00 AM)
Minimum temperature yesterday: 41 °F (at 11:00 PM)
Average temperature yesterday: 47 °F

Past Weeks' High & Low Weather Summary

 TemperatureHumidityPressure
High54 °F (Dec 19, 9:00 AM)99% (Dec 14, 11:00 AM)30.22 "Hg (Dec 14, 11:00 AM)
Low31 °F (Dec 17, 8:00 AM)66% (Dec 13, 3:00 PM)29.41 "Hg (Dec 12, 8:00 PM)
Average42 °F88%29.84 "Hg
* Reported Dec 10 11:00 AM — Dec 25 11:00 AM, Fürstenwalde/Spree, Weather by CustomWeather, © 2014

Note: Actual official high and low records may vary slightly from our data, if they occured in-between our weather recording intervals... More about our weather records

Advertising

Fürstenwalde/Spree weather history for previous 24 hours

 ConditionsComfort  
Time TempWeatherWind HumidityBarometerVisibility
11:00 AM
Dec 25
41 °FOvercast.9 mph76%29.97 "Hg19 mi
9:00 AM38 °FScattered clouds.8 mph83%29.97 "Hg12 mi
8:00 AM37 °FClear.6 mph87%29.97 "Hg12 mi
7:00 AM37 °FClear.6 mph88%29.97 "Hg12 mi
6:00 AM37 °FClear.6 mph91%29.97 "Hg12 mi
5:00 AM37 °FPassing clouds.6 mph92%29.96 "Hg12 mi
3:00 AM38 °FClear.7 mph93%29.96 "Hg16 mi
2:00 AM39 °FClear.7 mph93%29.94 "Hg16 mi
1:00 AM39 °FClear.6 mph96%29.93 "Hg16 mi
12:00 AM39 °FClear.7 mph95%29.92 "Hg16 mi
11:00 PM
Dec 24
41 °FClear.7 mph94%29.91 "Hg16 mi
9:00 PM42 °FLight rain. Overcast.8 mph89%29.87 "Hg9 mi
8:00 PM43 °FLight rain. Overcast.6 mph94%29.85 "Hg6 mi
7:00 PM47 °FLight rain. Overcast.9 mph82%29.83 "Hg12 mi
6:00 PM48 °FOvercast.12 mph77%29.81 "Hg25 mi
5:00 PM47 °FOvercast.10 mph78%29.81 "Hg25 mi
3:00 PM47 °FLight rain. Overcast.10 mph77%29.81 "Hg19 mi
2:00 PM47 °FOvercast.12 mph75%29.80 "Hg25 mi
1:00 PM47 °FOvercast.10 mph74%29.81 "Hg25 mi
12:00 PM46 °FOvercast.10 mph75%29.82 "Hg25 mi
11:00 AM47 °FOvercast.12 mph74%29.83 "Hg25 mi
Weather by CustomWeather, © 2014

See weather overviewHow to use our weather pages